| time (UTC) | temp F | wind direction | speed MPH | gust MPH | rain 1hr in | rain 24hr in | rain mn in | humidity % | barometer mb |
| 20260508003043 | 54 | 194 | 4.0 | 7.0 | 0.00 | 0.03 | 0.03 | 81 | 1011.7 |
| 20260508001501 | 54 | 193 | 2.0 | 6.0 | 0.00 | 0.03 | 0.03 | 81 | 1011.5 |
| 20260508000033 | 54 | 193 | 2.0 | 6.0 | 0.00 | 0.03 | 0.03 | 80 | 1011.3 |
| 20260507234549 | 54 | 193 | 2.0 | 8.0 | 0.00 | 0.03 | 0.03 | 80 | 1011.2 |
| 20260507233005 | 54 | 193 | 2.0 | 6.0 | 0.00 | 0.03 | 0.03 | 80 | 1011.0 |
| 20260507231540 | 55 | 196 | 2.0 | 8.0 | 0.00 | 0.03 | 0.03 | 80 | 1010.7 |
| 20260507230058 | 55 | 205 | 3.0 | 10.0 | 0.00 | 0.03 | 0.03 | 79 | 1010.8 |
| 20260507224516 | 55 | 207 | 3.0 | 7.0 | 0.00 | 0.03 | 0.03 | 78 | 1010.6 |
| 20260507223035 | 56 | 234 | 2.0 | 8.0 | 0.00 | 0.03 | 0.03 | 78 | 1010.6 |
| 20260507221553 | 57 | 199 | 4.0 | 9.0 | 0.00 | 0.03 | 0.03 | 76 | 1010.4 |
| 20260507220016 | 57 | 213 | 4.0 | 7.0 | 0.00 | 0.03 | 0.03 | 73 | 1010.3 |
| 20260507214553 | 58 | 180 | 4.0 | 8.0 | 0.00 | 0.03 | 0.03 | 71 | 1010.3 |
| 20260507213109 | 57 | 187 | 4.0 | 9.0 | 0.00 | 0.03 | 0.03 | 69 | 1010.2 |
| 20260507211522 | 58 | 178 | 3.0 | 7.0 | 0.00 | 0.03 | 0.03 | 67 | 1010.3 |
| 20260507210051 | 59 | 174 | 4.0 | 9.0 | 0.00 | 0.03 | 0.03 | 65 | 1010.2 |
| 20260507204511 | 59 | 180 | 3.0 | 9.0 | 0.00 | 0.03 | 0.03 | 65 | 1010.1 |
| 20260507203045 | 58 | 173 | 3.0 | 10.0 | 0.00 | 0.03 | 0.03 | 66 | 1010.4 |
| 20260507201503 | 58 | 175 | 5.0 | 11.0 | 0.00 | 0.03 | 0.03 | 66 | 1010.5 |
| 20260507200037 | 59 | 192 | 2.0 | 9.0 | 0.00 | 0.03 | 0.03 | 64 | 1010.6 |
| 20260507194553 | 58 | 192 | 4.0 | 8.0 | 0.00 | 0.03 | 0.03 | 65 | 1010.8 |
| 20260507193033 | 59 | 198 | 4.0 | 10.0 | 0.00 | 0.03 | 0.03 | 64 | 1011.1 |
| 20260507191600 | 58 | 177 | 3.0 | 8.0 | 0.00 | 0.03 | 0.03 | 65 | 1010.9 |
| 20260507190035 | 58 | 174 | 3.0 | 8.0 | 0.00 | 0.03 | 0.03 | 67 | 1011.1 |
| 20260507184553 | 58 | 184 | 3.0 | 6.0 | 0.00 | 0.03 | 0.03 | 68 | 1011.4 |
| 20260507183016 | 57 | 62 | 1.0 | 5.0 | 0.00 | 0.03 | 0.03 | 68 | 1011.3 |
| 20260507181543 | 56 | 61 | 1.0 | 5.0 | 0.00 | 0.03 | 0.03 | 73 | 1011.4 |
| 20260507180010 | 56 | 60 | 1.0 | 4.0 | 0.00 | 0.03 | 0.03 | 74 | 1011.4 |
| 20260507174541 | 57 | 59 | 1.0 | 4.0 | 0.00 | 0.03 | 0.03 | 76 | 1011.5 |
| 20260507173003 | 56 | 71 | 2.0 | 4.0 | 0.00 | 0.03 | 0.03 | 72 | 1011.7 |
| 20260507171542 | 56 | 71 | 3.0 | 6.0 | 0.00 | 0.03 | 0.03 | 72 | 1011.8 |
| 20260507170056 | 55 | 69 | 1.0 | 5.0 | 0.00 | 0.03 | 0.03 | 74 | 1012.1 |
| 20260507164507 | 55 | 67 | 2.0 | 6.0 | 0.00 | 0.03 | 0.03 | 74 | 1012.3 |
| 20260507163039 | 55 | 355 | 2.0 | 8.0 | 0.00 | 0.03 | 0.03 | 80 | 1012.4 |
| 20260507161557 | 54 | 348 | 0.0 | 5.0 | 0.00 | 0.03 | 0.03 | 86 | 1012.6 |
| 20260507160021 | 54 | 348 | 2.0 | 5.0 | 0.00 | 0.03 | 0.03 | 84 | 1012.7 |
| 20260507154545 | 54 | 348 | 0.0 | 5.0 | 0.01 | 0.03 | 0.03 | 83 | 1013.1 |
| 20260507153002 | 54 | 74 | 1.0 | 8.0 | 0.01 | 0.03 | 0.03 | 81 | 1013.2 |
| 20260507151513 | 55 | 73 | 3.0 | 8.0 | 0.01 | 0.03 | 0.03 | 85 | 1012.7 |
| 20260507150037 | 54 | 76 | 2.0 | 6.0 | 0.01 | 0.03 | 0.03 | 87 | 1012.6 |
| 20260507144605 | 53 | 76 | 2.0 | 9.0 | 0.00 | 0.03 | 0.02 | 85 | 1012.8 |
| 20260507143034 | 54 | 78 | 4.0 | 13.0 | 0.00 | 0.03 | 0.02 | 83 | 1012.9 |
| 20260507141554 | 54 | 68 | 2.0 | 8.0 | 0.00 | 0.03 | 0.02 | 85 | 1013.1 |
| 20260507140002 | 54 | 69 | 3.0 | 6.0 | 0.00 | 0.05 | 0.02 | 83 | 1013.2 |
| 20260507134541 | 54 | 71 | 3.0 | 8.0 | 0.00 | 0.05 | 0.02 | 82 | 1013.3 |
| 20260507133058 | 55 | 75 | 4.0 | 9.0 | 0.00 | 0.05 | 0.02 | 81 | 1013.3 |
| 20260507131528 | 55 | 78 | 1.0 | 9.0 | 0.00 | 0.05 | 0.02 | 80 | 1013.2 |
| 20260507130109 | 55 | 77 | 4.0 | 9.0 | 0.00 | 0.05 | 0.02 | 80 | 1012.9 |
| 20260507124512 | 56 | 78 | 2.0 | 6.0 | 0.00 | 0.05 | 0.02 | 81 | 1012.9 |
| 20260507123038 | 55 | 76 | 2.0 | 6.0 | 0.00 | 0.05 | 0.02 | 81 | 1012.8 |
| 20260507121550 | 55 | 78 | 3.0 | 8.0 | 0.00 | 0.05 | 0.02 | 82 | 1012.8 |
| 20260507120012 | 55 | 77 | 3.0 | 6.0 | 0.00 | 0.05 | 0.02 | 82 | 1012.6 |
| 20260507114547 | 55 | 77 | 1.0 | 6.0 | 0.00 | 0.05 | 0.02 | 84 | 1012.8 |
| 20260507113010 | 54 | 78 | 3.0 | 8.0 | 0.00 | 0.05 | 0.02 | 84 | 1012.3 |
| 20260507111547 | 54 | 78 | 2.0 | 5.0 | 0.00 | 0.05 | 0.02 | 85 | 1012.4 |
| 20260507110005 | 54 | 78 | 3.0 | 6.0 | 0.00 | 0.05 | 0.02 | 86 | 1012.0 |
| 20260507104532 | 54 | 78 | 2.0 | 8.0 | 0.00 | 0.05 | 0.02 | 86 | 1011.7 |
| 20260507103057 | 54 | 79 | 3.0 | 7.0 | 0.00 | 0.05 | 0.02 | 86 | 1012.0 |
| 20260507101512 | 54 | 80 | 2.0 | 6.0 | 0.00 | 0.05 | 0.02 | 87 | 1011.8 |
| 20260507100045 | 54 | 80 | 1.0 | 9.0 | 0.00 | 0.05 | 0.02 | 87 | 1011.8 |
| 20260507094600 | 54 | 78 | 3.0 | 8.0 | 0.00 | 0.05 | 0.02 | 87 | 1011.5 |
| 20260507093036 | 54 | 78 | 2.0 | 11.0 | 0.00 | 0.05 | 0.02 | 88 | 1011.3 |
| 20260507091544 | 55 | 76 | 4.0 | 9.0 | 0.00 | 0.05 | 0.02 | 89 | 1011.5 |
| 20260507090019 | 55 | 81 | 2.0 | 11.0 | 0.00 | 0.05 | 0.02 | 90 | 1011.3 |
| 20260507084550 | 55 | 69 | 2.0 | 9.0 | 0.00 | 0.05 | 0.02 | 91 | 1011.3 |
| 20260507083002 | 56 | 78 | 3.0 | 12.0 | 0.00 | 0.05 | 0.02 | 91 | 1011.2 |
| 20260507081530 | 56 | 70 | 3.0 | 9.0 | 0.00 | 0.05 | 0.02 | 92 | 1010.9 |
| 20260507080050 | 56 | 68 | 3.0 | 6.0 | 0.00 | 0.05 | 0.02 | 92 | 1011.2 |
| 20260507074605 | 56 | 67 | 2.0 | 8.0 | 0.00 | 0.05 | 0.02 | 92 | 1011.1 |
| 20260507073024 | 57 | 76 | 3.0 | 9.0 | 0.00 | 0.05 | 0.02 | 92 | 1010.5 |
| 20260507071600 | 57 | 5 | 4.0 | 10.0 | 0.00 | 0.05 | 0.02 | 93 | 1010.2 |
| 20260507070011 | 58 | 60 | 4.0 | 13.0 | 0.00 | 0.05 | 0.02 | 92 | 1010.1 |
| 20260507064544 | 59 | 75 | 3.0 | 9.0 | 0.00 | 0.05 | 0.02 | 93 | 1009.8 |
| 20260507063055 | 61 | 76 | 3.0 | 10.0 | 0.00 | 0.05 | 0.02 | 93 | 1010.3 |
| 20260507061516 | 63 | 129 | 3.0 | 8.0 | 0.00 | 0.05 | 0.02 | 94 | 1010.3 |
| 20260507060047 | 64 | 131 | 1.0 | 4.0 | 0.00 | 0.05 | 0.02 | 93 | 1010.0 |
| 20260507054506 | 64 | 132 | 1.0 | 2.0 | 0.01 | 0.05 | 0.02 | 93 | 1010.1 |
| 20260507053026 | 64 | 132 | 1.0 | 4.0 | 0.02 | 0.05 | 0.02 | 93 | 1009.7 |
| 20260507051550 | 64 | 132 | 1.0 | 3.0 | 0.02 | 0.05 | 0.02 | 92 | 1008.9 |
| 20260507050012 | 65 | 132 | 1.0 | 7.0 | 0.02 | 0.05 | 0.02 | 92 | 1009.0 |
| 20260507044543 | 65 | 220 | 0.0 | 2.0 | 0.01 | 0.04 | 0.01 | 91 | 1009.7 |
| 20260507043105 | 65 | 220 | 0.0 | 1.0 | 0.00 | 0.03 | 0.00 | 90 | 1010.0 |
| 20260507041525 | 66 | 220 | 0.0 | 2.0 | 0.00 | 0.03 | 0.00 | 89 | 1009.8 |
| 20260507040048 | 66 | 220 | 0.0 | 3.0 | 0.00 | 0.03 | 0.00 | 87 | 1009.5 |
| 20260507034557 | 67 | 220 | 1.0 | 3.0 | 0.00 | 0.03 | 0.03 | 86 | 1010.0 |
| 20260507033019 | 67 | 220 | 1.0 | 5.0 | 0.00 | 0.03 | 0.03 | 84 | 1010.1 |
| 20260507031541 | 67 | 209 | 2.0 | 10.0 | 0.00 | 0.03 | 0.03 | 84 | 1010.0 |
| 20260507030004 | 67 | 199 | 5.0 | 9.0 | 0.00 | 0.03 | 0.03 | 84 | 1009.6 |
| 20260507024534 | 67 | 207 | 4.0 | 8.0 | 0.00 | 0.03 | 0.03 | 83 | 1009.8 |
| 20260507023053 | 67 | 223 | 3.0 | 8.0 | 0.00 | 0.03 | 0.03 | 83 | 1010.1 |
| 20260507021510 | 67 | 232 | 2.0 | 6.0 | 0.00 | 0.03 | 0.03 | 83 | 1009.5 |
| 20260507020045 | 67 | 201 | 1.0 | 8.0 | 0.00 | 0.03 | 0.03 | 83 | 1009.1 |
| 20260507014504 | 67 | 208 | 3.0 | 8.0 | 0.00 | 0.03 | 0.03 | 83 | 1009.2 |
| 20260507013038 | 67 | 212 | 2.0 | 7.0 | 0.00 | 0.03 | 0.03 | 82 | 1009.5 |
| 20260507011604 | 67 | 207 | 3.0 | 10.0 | 0.00 | 0.03 | 0.03 | 82 | 1009.6 |
| 20260507010016 | 68 | 200 | 4.0 | 9.0 | 0.00 | 0.03 | 0.03 | 81 | 1009.6 |
| 20260507004543 | 68 | 228 | 2.0 | 10.0 | 0.00 | 0.03 | 0.03 | 81 | 1009.7 |